Location: Kumla
(59.1265°N, 15.1401°E)
Time: 06:13:42
(UTC+01:00)

Transit 4A - Pass Details

Date: 03 December 2023
Orbit: 870 x 973 km, 66.8° (Epoch: 02 March)

Event Time Altitude Azimuth Distance (km) Brightness Sun altitude
Exits shadow 01:58:48 11° 82° (E) 2,576 10.6 -46.3°
Drops below altitude 10° 01:58:58 10° 82° (E) 2,628 10.7 -46.3°
Sets 02:01:35 0° 89° (E) 3,553 11.4 -46.1°
